19.04.2024;09:00;33
19.04.2024;08:00;32
19.04.2024;07:00;25
19.04.2024;06:00;19
19.04.2024;05:00;17
19.04.2024;04:00;18
19.04.2024;03:00;17
19.04.2024;02:00;13
19.04.2024;01:00;15
19.04.2024;00:00;14
18.04.2024;23:00;26
18.04.2024;22:00;11
18.04.2024;21:00;10
18.04.2024;20:00;7
18.04.2024;19:00;7
18.04.2024;18:00;8
18.04.2024;17:00;7
18.04.2024;16:00;7
18.04.2024;15:00;6
18.04.2024;14:00;5
18.04.2024;13:00;6
18.04.2024;12:00;6
18.04.2024;11:00;8
18.04.2024;10:00;10
18.04.2024;09:00;15
18.04.2024;08:00;21
18.04.2024;07:00;14
18.04.2024;06:00;14
18.04.2024;05:00;10
18.04.2024;04:00;10
18.04.2024;03:00;9
18.04.2024;02:00;9
18.04.2024;01:00;9
18.04.2024;00:00;13
17.04.2024;23:00;15
17.04.2024;22:00;9
17.04.2024;21:00;22
17.04.2024;20:00;21
17.04.2024;19:00;22
17.04.2024;18:00;14
17.04.2024;17:00;8
17.04.2024;16:00;10
17.04.2024;15:00;10
17.04.2024;14:00;10
17.04.2024;13:00;10
17.04.2024;12:00;7
17.04.2024;11:00;19
17.04.2024;10:00;32
